Flag for Faroe Islands Weather past 2 weeks in Tórshavn, Faroe Islands, Faroe Islands

Now
54 °F

Low clouds.


Feels Like: 51 °F
Forecast: 47 / 59 °F
Wind: 8 mph from Southeast

Location: Soervaag / Vagar

Current Time: Jul 2, 2015 at 1:13:29 AM

Latest Report: Jul 2, 2015 at 12:20 AM


Visibility: N/A

Pressure: 29.86 "Hg

Humidity: 94%

Dew point: 52 °F

Location of TórshavnLocation

Historic Weather in Tórshavn — Graph

°F

Tórshavn temperature yesterday

Maximum temperature yesterday: 55 °F (at 1:50 PM)
Minimum temperature yesterday: 50 °F (at 6:20 PM)
Average temperature yesterday: 52 °F

Past Weeks' High & Low Weather Summary

 TemperatureHumidityPressure
High55 °F (Jun 30, 7:50 PM)100% (Jun 16, 11:20 PM)30.15 "Hg (Jun 16, 11:20 PM)
Low43 °F (Jun 23, 11:50 PM)58% (Jun 23, 2:50 PM)29.59 "Hg (Jun 17, 4:20 AM)
Average49 °F89%29.91 "Hg
* Reported Jun 16 11:20 PM — Jul 1 11:50 PM, Tórshavn, Weather by CustomWeather, © 2015

Note: Actual official high and low records may vary slightly from our data, if they occured in-between our weather recording intervals... More about our weather records

Advertising

Tórshavn weather history for previous 24 hours

 ConditionsComfort  
Time TempWeatherWind HumidityBarometerVisibility
11:50 PM
Wed, Jul 1
52 °FPartly sunny.8 mph100%29.86 "HgN/A
10:50 PM54 °FSprinkles. Partly sunny.7 mph100%29.83 "HgN/A
10:20 PM50 °FSprinkles. Partly sunny.9 mph100%29.86 "HgN/A
9:50 PM52 °FLight rain. Partly sunny.3 mph100%29.86 "HgN/A
9:20 PM52 °FLight rain. Partly sunny.3 mph100%29.89 "Hg6 mi
8:50 PM50 °FRain showers. Partly sunny.2 mph100%29.89 "Hg4 mi
8:20 PM50 °FSprinkles. Partly sunny.7 mph94%29.89 "HgN/A
7:50 PM50 °FSprinkles. Broken clouds.10 mph94%29.89 "Hg5 mi
7:20 PM52 °FPartly sunny.5 mph94%29.89 "HgN/A
6:50 PM54 °FSprinkles. Partly sunny.5 mph94%29.89 "HgN/A
6:20 PM50 °FSprinkles. Fog.12 mph100%29.92 "Hg0 mi
5:50 PM54 °FSprinkles. Partly sunny.7 mph94%29.92 "HgN/A
5:20 PM54 °FPartly sunny.9 mph94%29.89 "HgN/A
4:50 PM54 °FSprinkles. Partly sunny.9 mph94%29.92 "HgN/A
4:20 PM55 °FPartly sunny.9 mph88%29.92 "HgN/A
3:50 PM55 °FPartly sunny.10 mph88%29.92 "HgN/A
3:20 PM55 °FScattered clouds.9 mph88%29.92 "HgN/A
2:50 PM54 °FPartly sunny.8 mph94%29.92 "HgN/A
2:20 PM55 °FPartly sunny.7 mph94%29.92 "HgN/A
1:50 PM55 °FLow clouds.6 mph94%29.92 "HgN/A
1:20 PM54 °FLow clouds.6 mph94%29.92 "HgN/A
12:50 PM54 °FMostly cloudy.6 mph94%29.92 "HgN/A
12:20 PM54 °FLow clouds.8 mph100%29.92 "HgN/A
11:50 AM54 °FFog.8 mph94%29.92 "Hg3 mi
11:20 AM52 °FPartly sunny.8 mph100%29.92 "HgN/A
10:50 AM52 °FFog.9 mph100%29.92 "Hg1 mi
10:20 AM52 °FFog.9 mph100%29.89 "Hg2 mi
9:50 AM52 °FFog.10 mph100%29.89 "Hg1 mi
9:20 AM52 °FFog.10 mph100%29.89 "Hg1 mi
8:50 AM52 °FFog.8 mph100%29.86 "Hg2 mi
8:20 AM52 °FSprinkles. Fog.10 mph94%29.86 "Hg1 mi
7:50 AM52 °FFog.13 mph100%29.86 "Hg1 mi
7:20 AM52 °FLow clouds.14 mph100%29.83 "Hg4 mi
6:50 AM52 °FSprinkles. Low clouds.16 mph100%29.83 "Hg4 mi
6:20 AM52 °FSprinkles. Low clouds.17 mph100%29.83 "Hg4 mi
5:50 AM52 °FFog.10 mph100%29.83 "Hg3 mi
5:20 AM52 °FFog.15 mph100%29.83 "Hg3 mi
4:50 AM52 °FFog.13 mph100%29.80 "Hg2 mi
4:20 AM52 °FLow clouds.15 mph100%29.80 "Hg3 mi
3:50 AM52 °FFog.14 mph100%29.80 "Hg1 mi
3:20 AM52 °FFog.14 mph100%29.83 "Hg1 mi
2:50 AM52 °FFog.16 mph100%29.80 "Hg1 mi
2:20 AM52 °FSprinkles. Low clouds.14 mph100%29.80 "Hg4 mi
1:50 AM52 °FSprinkles. Low clouds.14 mph100%29.80 "Hg3 mi
1:20 AM52 °FLight rain. Fog.14 mph100%29.83 "Hg3 mi
Weather by CustomWeather, © 2015

See weather overviewHow to use our weather pages